Regional Weather Roundup
Issued by NWS

Home | Current Version | Previous Version | Text Only | Print | Product List | Glossary On
Versions: 1 2 3 4 5 6 7 8 9 10 11 12 13 14 15 16 17 18 19 20 21 22 23 24 25 26 27 28 29 30 31 32 33 34 35 36 37 38 39 40 41 42 43 44 45 46 47 48 49 50
000
ASUS43 KFSD 191010
RWRSD

WEATHER ROUNDUP FOR SOUTH DAKOTA
NATIONAL WEATHER SERVICE SIOUX FALLS SD
400 AM CST SUN NOV 19 2017

NOTE: "FAIR" INDICATES FEW OR NO CLOUDS BELOW 12,000 FEET WITH NO
SIGNIFICANT WEATHER AND/OR OBSTRUCTIONS TO VISIBILITY.


SDZ001>005-009-010-012>017-191100-
NORTHWEST AND NORTH CENTRAL SOUTH DAKOTA

CITY           SKY/WX    TMP DP  RH WIND       PRES   REMARKS
BUFFALO          N/A     28  18  66 W12       29.93F WCI  18
FAITH            N/A     27  21  78 SW10      30.03F WCI  17
MOBRIDGE       CLOUDY    21  17  84 SE3       30.02F
$$

SDZ012>016-024>037-041>051-057-063-072>074-191100-
SOUTHWEST AND SOUTH CENTRAL SOUTH DAKOTA

CITY           SKY/WX    TMP DP  RH WIND       PRES   REMARKS
RAPID CTY ARPT CLOUDY    23  14  68 CALM      30.06F
PIERRE         CLEAR     27  23  85 W10       30.07F WCI  17
CUSTER         CLOUDY    27  11  51 W8        30.06F WCI  19
ELLSWORTH AFB  CLOUDY    27  16  62 W9        30.04F WCI  18
PHILIP         CLOUDY    25  19  78 W8        30.09F WCI  16
PINE RIDGE     CLEAR     22  16  78 W3        30.13F
SPEARFISH      FAIR      41  12  30 SW18G24   30.00F
WINNER         FAIR      31  21  66 SW9       30.11F WCI  23
$$

SDZ004>011-016>023-039-040-191100-
NORTHEAST SOUTH DAKOTA

CITY           SKY/WX    TMP DP  RH WIND       PRES   REMARKS
ABERDEEN       CLOUDY    15  13  91 S7        30.06F WCI   5
WATERTOWN      CLEAR     19  15  84 SW9       30.04F WCI   8
BROOKINGS      CLEAR     20  15  81 SW7       30.08F WCI  11
SISSETON         N/A     25  16  68 W9        30.03F WCI  15
$$

SDZ017-020-022-023-036>040-048>070-191100-
SOUTHEAST SOUTH DAKOTA

CITY           SKY/WX    TMP DP  RH WIND       PRES   REMARKS
SIOUX FALLS    CLEAR     22  16  78 VRB3      30.12F
HURON          CLEAR     23  18  81 S9        30.09F WCI  13
CHAMBERLAIN    CLOUDY    25  23  93 SW3       30.10F
MITCHELL       CLEAR     24  19  81 SW8       30.12F WCI  15
YANKTON        CLOUDY    25  22  88 CALM      30.15F
$$

ABBREVIATIONS USED IN REMARKS
   TC - TEMPERATURE IN CELSIUS
  WCI - WIND CHILL INDEX
   HX - HEAT INDEX
  VSB - VISIBILITY





USA.gov is the U.S. government's official web portal to all federal, state and local government web resources and services.